星链-34816 (STARLINK-34816)

导读

STARLINK-34816是美国SpaceX星链互联网星座的第34816颗卫星,于2025年9月3日发射升空,属于Starlink v2.0 mini卫星平台,运行于近地轨道。星链星座旨在为全球提供高速低延迟宽带互联网服务,尤其覆盖偏远地区,该卫星采用平板设计搭载氪工质霍尔推进器,具备自主避撞能力,寿命末期将主动离轨坠入大气层烧毁,服务全球互联网接入。

Basic Information
目录编号:
65467
目录名称:
STARLINK-34816
国际标识:
2025-195K
轨道中心:
EARTH
卫星名称:
星链-34816
卫星全名:
星链-34816 (STARLINK-34816)
卫星状态:
在轨 (已飞行283 天)
发射日期:
2025-09-03 UTC
国别 :
美国 (US)
星等 :
--
Orbit Information
数据来源 国际轨道数据 AOE轨道数据
星历时间 2026-06-13T14:35:42+0800
12小时前
查看轨道信息
2026-06-13T06:00:00+0800
21小时前
查看轨道信息
半长轴 6853.312km 6853.377km
偏心率 0.0001299 0.0000831
轨道倾角 53.158° 53.162°
近地点辐角 130.872° 78.180°
升交点赤经 174.522° 176.187°
平近点角 229.240° 107.996°
近地点 474.284km 474.67km
远地点 476.066km 475.81km
周期 94.105分钟 94.106分钟
每日圈数 15.302137 15.301917
Detailed Information
固有亮度:
5
最大亮度:
2.5
卫星平台:
Starlink V1.0
覆盖范围:
全球
运营商:
太空探索技术公司
运营商所在国:
美国
制造商(研发单位):
太空探索技术公司
制造商所在国:
美国
使用方式:
暂无
Satellite Introduction
Starlink 计划是 SpaceX 推出的全球卫星互联网项目,通过发射低轨道卫星,为全球尤其是偏远地区提供高速、低延迟的互联网服务。自 2019 年起,Starlink 已部署数千颗卫星,旨在缩小全球数字鸿沟,推动互联网普及。该项目还为军事、航空等行业提供通信支持,带来广泛经济效益。
2D Orbit Map
3D Orbit Map
Orbit Altitude Analysis Chart
Orbit Inclination Analysis Chart
Orbit Comprehensive Analysis Chart
View Comprehensive Chart